Voltar ao catálogo

STARLINK-31225

AtivoComunicaçõesVLEO
NORAD 59040·PAYLOAD·🇺🇸 United States

Lançado Feb 25, 2024 de Cape Canaveral Space Force Station

Loading…

Próximas Passagens (próximas 24 horas)

TLE

AtualizadoSource: CelesTrak SupGP

Época: Sep 14, 2026, 15:01 UTC

1 59040C 24038T   26257.62618056 -.00049064  00000+0 -17776-2 0  2572
2 59040  43.0009  36.2739 0001265 272.0046 187.7675 15.27594110    18

Acompanhe STARLINK-31225 em tempo real com AllMySat

Download on the App Store